[[{"header":{"parameterUnit":"m.s-1","parameterCategory":1,"la1":30.2991,"la2":30.254,"lo1":-89.0895,"lo2":-89.0444,"dy":0.0017,"dx":0.0017,"nx":28,"ny":28,"refTime":"2024-07-07T09:00:00:Z","depth":0,"parameterNumber":2,"parameterNumberName":"U-component_of_WINDS"},"data":[0,0,0,0,0,0,0,0,0,0,0,0,0,0,0,0,0,0,0,0,0,0,0,0,0,0,0,0,0,0,0,0,0,0,0,0,0,0,0,0,0,0,0,0,0,0,0,0,0,0,0,0,0,0,0,0,0,0,-3.2749,-3.2748,0,-3.2718,-3.2718,-3.2717,-3.2669,-3.2668,-3.2667,-3.2666,-3.2633,-3.2633,-3.2633,0,0,0,0,0,0,0,0,0,0,0,0,0,-3.2765,-3.2765,-3.2749,-3.2748,-3.2748,-3.2718,-3.2718,-3.2717,-3.2669,-3.2668,-3.2667,-3.2666,-3.2633,-3.2633,-3.2633,0,0,0,0,0,0,0,0,0,0,0,0,0,-3.2749,-3.2765,-3.2749,-3.272,-3.2717,-3.2718,-3.2718,-3.2717,-3.2669,-3.2668,-3.2666,-3.2665,-3.2633,-3.2633,-3.2633,-3.2659,0,0,-3.2633,-3.2633,0,0,0,0,0,0,0,0,-3.275,-3.2748,-3.2725,-3.2722,-3.2719,-3.2696,-3.2711,-3.2698,-3.2669,-3.2687,-3.2666,-3.2665,-3.2655,-3.2653,-3.265,-3.2658,-3.2656,-3.2633,-3.2633,-3.2633,-3.2633,0,0,0,0,0,0,0,-3.2751,-3.2749,-3.2737,-3.2725,-3.2721,-3.2709,-3.2705,-3.2709,-3.2679,-3.2686,-3.2682,-3.2679,-3.2653,-3.2651,-3.2649,-3.2656,-3.2633,-3.2633,-3.2633,-3.2633,-3.2683,-3.2684,0,0,0,0,0,0,-3.2756,-3.275,-3.2738,-3.2736,-3.2731,-3.271,-3.2705,-3.2705,-3.2679,-3.2674,-3.268,-3.2677,-3.2651,-3.2649,-3.2648,-3.2675,-3.2633,-3.2633,-3.2633,-3.2681,-3.2683,-3.2684,0,0,0,0,0,0,-3.2757,-3.2756,-3.2739,-3.2742,-3.2739,-3.2711,-3.271,-3.2705,-3.2702,-3.2675,-3.2669,-3.2683,-3.265,-3.2648,-3.2657,-3.2674,-3.2633,-3.2633,-3.268,-3.2682,-3.2684,-3.2731,0,0,0,0,0,0,-3.2757,-3.2756,-3.2765,-3.2743,-3.2739,-3.2748,-3.2711,-3.2705,-3.2702,-3.2697,-3.2676,-3.2671,-3.2649,-3.2657,-3.2657,-3.2673,-3.2633,-3.2678,-3.2681,-3.2683,-3.2728,-3.2735,-3.2741,0,0,0,0,0,-3.2758,-3.278,-3.2766,-3.2765,-3.275,-3.2749,-3.2747,-3.2722,-3.2704,-3.2713,-3.2696,-3.2672,-3.2673,-3.2658,-3.2658,-3.2674,-3.2677,-3.268,-3.2683,-3.2725,-3.2734,-3.274,0,0,0,0,0,0,-3.2804,-3.2776,-3.2761,-3.2776,-3.2765,-3.2741,-3.2751,-3.2732,-3.2726,-3.2721,-3.269,-3.2686,-3.2699,-3.2688,-3.2672,-3.2698,-3.2671,-3.2674,-3.2704,-3.2711,-3.2717,-3.2718,-3.2633,0,0,0,0,0,-3.2817,-3.2818,-3.2794,-3.2809,-3.2805,-3.278,-3.2778,-3.276,-3.2748,-3.2743,-3.2726,-3.2715,-3.2713,-3.2712,-3.2709,-3.2728,-3.2722,-3.2739,-3.2745,-3.275,-3.2752,-3.2761,-3.2767,-3.2695,-3.2695,-3.2695,0,0,-3.2841,-3.2826,-3.2829,-3.2818,-3.2808,-3.281,-3.2776,-3.278,-3.2781,-3.2743,-3.275,-3.2738,-3.2724,-3.2738,-3.2743,-3.2729,-3.2772,-3.2754,-3.2758,-3.2757,-3.2764,-3.2771,-3.2778,-3.2697,-3.2696,-3.2696,0,0,-3.2886,-3.2876,-3.2887,-3.2878,-3.2863,-3.2847,-3.285,-3.2829,-3.282,-3.2827,-3.2799,-3.28,-3.2797,-3.2788,-3.2783,-3.2827,-3.2804,-3.2827,-3.2858,-3.2867,-3.2873,-3.2878,-3.2892,-3.2897,-3.283,-3.283,-3.283,0,-3.2917,-3.292,-3.2895,-3.2901,-3.2897,-3.2865,-3.2876,-3.2868,-3.2853,-3.2851,-3.2836,-3.2832,-3.2821,-3.2831,-3.2842,-3.284,-3.2842,-3.2828,-3.2874,-3.2879,-3.2883,-3.2896,-3.2902,-3.2833,-3.2833,-3.2832,-3.2832,0,-3.2959,-3.2961,-3.2973,-3.2959,-3.2957,-3.2966,-3.2942,-3.2943,-3.2926,-3.2911,-3.2919,-3.2904,-3.2897,-3.2899,-3.2882,-3.2907,-3.2899,-3.288,-3.2852,-3.2893,-3.2905,-3.291,-3.2837,-3.2836,-3.2835,-3.2834,0,0,-3.3029,-3.3004,-3.3008,-3.3001,-3.2984,-3.2985,-3.2993,-3.2987,-3.2988,-3.298,-3.2984,-3.2984,-3.2966,-3.2961,-3.2943,-3.2951,-3.2986,-3.2931,-3.293,-3.294,-3.3012,-3.3024,-3.303,-3.2972,-3.2973,-3.2974,-3.3012,0,-3.3068,-3.3079,-3.3058,-3.3074,-3.3075,-3.3046,-3.3053,-3.3043,-3.303,-3.303,-3.3015,-3.3015,-3.2993,-3.2989,-3.2996,-3.298,-3.2999,-3.2978,-3.2975,-3.2975,-3.2976,-3.3037,-3.305,-3.3086,-3.3017,-3.3017,-3.3018,0,-3.3115,-3.3109,-3.3125,-3.3108,-3.3108,-3.3114,-3.3107,-3.3107,-3.3096,-3.3086,-3.3081,-3.3061,-3.3067,-3.3043,-3.3051,-3.3036,-3.3035,-3.3027,-3.3028,-3.3024,-3.2997,-3.3032,-3.3097,-3.3102,-3.3025,-3.3025,-3.3024,0,-3.3161,-3.3158,-3.3167,-3.3163,-3.3144,-3.3149,-3.3141,-3.3129,-3.3126,-3.3121,-3.3119,-3.3114,-3.3111,-3.3108,-3.3087,-3.3072,-3.3096,-3.3071,-3.3087,-3.3087,-3.309,-3.309,-3.3154,-3.3095,-3.3095,-3.3095,-3.3094,0,-3.3206,-3.3216,-3.3188,-3.3193,-3.3204,-3.3181,-3.3193,-3.3182,-3.3172,-3.3174,-3.315,-3.3153,-3.3127,-3.3127,-3.3111,-3.3119,-3.3118,-3.3109,-3.3104,-3.311,-3.3111,-3.3106,-3.3102,-3.3096,-3.3096,-3.3095,-3.3095,0,-3.3258,-3.324,-3.3247,-3.3229,-3.3225,-3.3234,-3.3218,-3.3222,-3.3209,-3.3212,-3.3212,-3.3191,-3.319,-3.317,-3.3165,-3.3154,-3.3167,-3.3159,-3.3171,-3.3167,-3.3184,-3.3181,-3.3244,-3.325,-3.319,-3.3191,-3.3191,0,-3.3286,-3.3293,-3.3276,-3.3276,-3.327,-3.3271,-3.3269,-3.3247,-3.3246,-3.3235,-3.324,-3.3238,-3.3234,-3.3234,-3.3217,-3.3214,-3.3203,-3.3226,-3.3202,-3.3207,-3.3201,-3.3199,-3.3199,-3.3229,-3.323,-3.3231,-3.3231,0,-3.3337,-3.3328,-3.3326,-3.3321,-3.332,-3.3315,-3.3309,-3.3311,-3.3287,-3.3287,-3.3286,-3.3284,-3.3279,-3.3276,-3.327,-3.3261,-3.3242,-3.324,-3.3243,-3.3247,-3.3252,-3.3247,-3.3181,-3.3237,-3.3237,-3.3236,-3.3236,-3.3236,-3.3376,-3.3381,-3.337,-3.3369,-3.3362,-3.3357,-3.336,-3.3348,-3.3347,-3.3341,-3.333,-3.333,-3.332,-3.3309,-3.3303,-3.3303,-3.3292,-3.3297,-3.3297,-3.3298,-3.3301,-3.3255,-3.3302,-3.3302,-3.3302,-3.3302,-3.3302,0,-3.3424,-3.3416,-3.3415,-3.3407,-3.3407,-3.3391,-3.3384,-3.3384,-3.3385,-3.3378,-3.3375,-3.3374,-3.3372,-3.3357,-3.3353,-3.3356,-3.3347,-3.3355,-3.3353,-3.3352,-3.3312,-3.3309,-3.3363,-3.3363,-3.3363,-3.3363,-3.3363,-3.3363,-3.3448,-3.3456,-3.3446,-3.345,-3.3442,-3.3443,-3.344,-3.3435,-3.3429,-3.3429,-3.3428,-3.3418,-3.3408,-3.3403,-3.34,-3.3396,-3.3394,-3.3405,-3.3398,-3.336,-3.3354,-3.3349,-3.3345,-3.3406,-3.3406,-3.3437,-3.3437,-3.3437]},{"header":{"parameterUnit":"m.s-1","parameterCategory":1,"la1":30.2991,"la2":30.254,"lo1":-89.0895,"lo2":-89.0444,"dy":0.0017,"dx":0.0017,"nx":28,"ny":28,"refTime":"2024-07-07T09:00:00:Z","depth":0,"parameterNumber":3,"parameterNumberName":"V-component_of_WINDS"},"data":[0,0,0,0,0,0,0,0,0,0,0,0,0,0,0,0,0,0,0,0,0,0,0,0,0,0,0,0,0,0,0,0,0,0,0,0,0,0,0,0,0,0,0,0,0,0,0,0,0,0,0,0,0,0,0,0,0,0,5.3622,5.3622,0,5.3575,5.3574,5.3574,5.3527,5.3527,5.3526,5.3526,5.3473,5.3472,5.3472,0,0,0,0,0,0,0,0,0,0,0,0,0,5.3671,5.3671,5.3622,5.3622,5.3621,5.3575,5.3574,5.3573,5.3528,5.3527,5.3526,5.3525,5.3474,5.3473,5.3471,0,0,0,0,0,0,0,0,0,0,0,0,0,5.364,5.3671,5.3623,5.3593,5.359,5.3575,5.3574,5.3573,5.3528,5.3527,5.3526,5.3525,5.3474,5.3473,5.3471,5.3481,0,0,5.3467,5.3467,0,0,0,0,0,0,0,0,5.3641,5.3638,5.3598,5.3595,5.3591,5.3556,5.3572,5.3542,5.3528,5.3551,5.3526,5.3525,5.3501,5.3498,5.3491,5.3478,5.3476,5.3467,5.3467,5.3466,5.3466,0,0,0,0,0,0,0,5.3644,5.364,5.3603,5.3597,5.3593,5.3581,5.3576,5.3566,5.3532,5.3549,5.3546,5.3541,5.3499,5.3492,5.3489,5.3475,5.3467,5.3466,5.3465,5.3465,5.347,5.3471,0,0,0,0,0,0,5.3651,5.3642,5.3605,5.3602,5.3615,5.3581,5.3575,5.3568,5.3532,5.3525,5.3542,5.3539,5.3495,5.3491,5.3487,5.3497,5.3466,5.3465,5.3464,5.3469,5.347,5.3471,0,0,0,0,0,0,5.3652,5.3648,5.3607,5.3621,5.3615,5.3581,5.3574,5.3568,5.356,5.3526,5.3519,5.3541,5.3494,5.3489,5.3483,5.3494,5.3464,5.3463,5.3468,5.3469,5.3471,5.3516,0,0,0,0,0,0,5.3654,5.3649,5.3653,5.3621,5.3614,5.3605,5.3575,5.3568,5.3559,5.3555,5.3523,5.3517,5.3493,5.3486,5.3482,5.3492,5.3462,5.3467,5.3469,5.347,5.3513,5.3519,5.3523,0,0,0,0,0,5.3656,5.3666,5.3653,5.3649,5.3619,5.3606,5.3601,5.3574,5.356,5.3563,5.3541,5.3518,5.3494,5.3485,5.3481,5.3491,5.3466,5.3468,5.347,5.3511,5.3518,5.3523,0,0,0,0,0,0,5.3698,5.3661,5.3646,5.3647,5.363,5.3598,5.3601,5.3582,5.3567,5.3564,5.3529,5.3523,5.3521,5.3505,5.3497,5.3499,5.3477,5.3478,5.3509,5.3515,5.352,5.3524,5.3461,0,0,0,0,0,5.3708,5.3701,5.3669,5.3673,5.3666,5.3635,5.3628,5.3609,5.3589,5.3581,5.3559,5.354,5.3528,5.352,5.3507,5.3511,5.3503,5.3515,5.352,5.3525,5.3526,5.3528,5.3533,5.3478,5.3478,5.3478,0,0,5.3727,5.3706,5.3704,5.3681,5.3666,5.3659,5.3629,5.3623,5.3618,5.358,5.3574,5.3557,5.3533,5.3533,5.3531,5.3519,5.354,5.3527,5.3531,5.353,5.353,5.3536,5.354,5.3479,5.3479,5.3479,0,0,5.376,5.3743,5.3745,5.3731,5.3708,5.3688,5.3689,5.366,5.3647,5.3641,5.3613,5.3606,5.3586,5.357,5.356,5.3588,5.3567,5.3585,5.3611,5.3613,5.3617,5.3621,5.3632,5.3636,5.3586,5.3587,5.3587,0,5.3786,5.3777,5.3749,5.3745,5.3736,5.3703,5.3705,5.3691,5.3665,5.3659,5.3647,5.3622,5.3603,5.3599,5.3607,5.3599,5.3599,5.3588,5.3619,5.3623,5.3625,5.3636,5.364,5.3589,5.3589,5.3588,5.3588,0,5.3811,5.3805,5.3809,5.3787,5.3778,5.3777,5.3749,5.3743,5.3725,5.3706,5.37,5.3677,5.366,5.3657,5.3638,5.3651,5.3644,5.3626,5.3603,5.3634,5.3643,5.3646,5.3592,5.3592,5.3591,5.359,0,0,5.3869,5.3832,5.3834,5.3824,5.3797,5.3791,5.3789,5.3773,5.3769,5.3752,5.375,5.3734,5.3718,5.3706,5.3685,5.3687,5.3712,5.3668,5.3667,5.3678,5.3725,5.374,5.3745,5.3698,5.3698,5.3699,5.3728,0,5.3898,5.3893,5.3868,5.387,5.3865,5.3833,5.3831,5.3814,5.3797,5.3789,5.3769,5.3759,5.3737,5.373,5.373,5.3709,5.3721,5.3706,5.3694,5.3694,5.3702,5.3749,5.3765,5.3793,5.3731,5.3731,5.3732,0,5.393,5.3918,5.392,5.3894,5.3891,5.389,5.3874,5.3867,5.3847,5.3834,5.3822,5.3799,5.3794,5.3773,5.3767,5.3757,5.3751,5.374,5.374,5.3738,5.3716,5.375,5.3801,5.3806,5.3737,5.3736,5.3736,0,5.3974,5.3957,5.3956,5.3948,5.3918,5.3918,5.3905,5.3885,5.3877,5.3863,5.3858,5.3843,5.3834,5.3823,5.3797,5.3784,5.3793,5.377,5.3783,5.3783,5.3786,5.3787,5.3839,5.3781,5.3781,5.3781,5.3781,0,5.4009,5.4012,5.3976,5.3975,5.3978,5.3949,5.3952,5.3935,5.3918,5.3913,5.3885,5.3881,5.3846,5.3839,5.3818,5.3816,5.3812,5.3802,5.3796,5.3805,5.3806,5.38,5.3798,5.3782,5.3782,5.3782,5.3781,0,5.4058,5.4034,5.4031,5.4003,5.3996,5.4,5.3975,5.3974,5.3955,5.395,5.3947,5.3917,5.3907,5.3879,5.3861,5.3847,5.3852,5.3841,5.3859,5.3856,5.3871,5.387,5.3921,5.3927,5.3865,5.3866,5.3866,0,5.4082,5.4084,5.4057,5.4053,5.4042,5.4035,5.4028,5.3999,5.3993,5.3971,5.3972,5.396,5.3949,5.3933,5.3909,5.3896,5.3885,5.3904,5.3883,5.3892,5.3887,5.3887,5.3888,5.3909,5.391,5.391,5.3911,0,5.4129,5.4117,5.4108,5.4096,5.4088,5.4077,5.4063,5.4061,5.4029,5.4023,5.4013,5.4005,5.3987,5.3976,5.3958,5.3944,5.3923,5.3918,5.392,5.3929,5.394,5.3936,5.3873,5.3917,5.3916,5.3916,5.3915,5.3915,5.4167,5.4167,5.4149,5.414,5.4128,5.4116,5.4114,5.4095,5.4087,5.4072,5.4055,5.4047,5.4027,5.4002,5.399,5.3983,5.3971,5.3975,5.3975,5.3977,5.3982,5.3941,5.3979,5.3979,5.3979,5.3979,5.3979,0,5.4213,5.42,5.4192,5.4175,5.4169,5.415,5.4134,5.413,5.4124,5.4108,5.4098,5.4087,5.4076,5.4051,5.4038,5.4037,5.4027,5.4034,5.4034,5.4032,5.3992,5.3992,5.4043,5.4043,5.4043,5.4043,5.4043,5.4043,5.4236,5.4237,5.4223,5.4217,5.4203,5.4197,5.419,5.4179,5.4166,5.4156,5.4147,5.4131,5.4112,5.4097,5.4086,5.4079,5.4076,5.4087,5.4077,5.404,5.4034,5.4029,5.4028,5.4086,5.4086,5.4117,5.4118,5.4118]}]]